Content
SEND FEEDBACK

Daily
Averages
Monthly
Summary
United States of America

SOUTH LAKE TAHOE - AIRPORT, CALIFORNIA


Home > North America > United States > California
Elevation: 6250 feet     Latitude: 38 54N     Longitude: 120 00W

WEATHER
 
SELECT A DAY
Number of Records: 174,306;   Date Range: 1/1/95 - 7/20/14
 
SHARE

PRINT THIS DATA

[ ← Previous Day ]
WEATHER ALMANAC - APRIL 21, 2013
[ Next Day → ]
[ °C ]   °F
Weather ElementAverageHighLow
Temperature49.9 °F68 °F (4:53 pm)30 °F (5:53 am)
Dewpoint29.3 °F37 °F (7:53 pm)24.1 °F (5:53 am)
Humidity50.9 %79 % (3:53 am)20 % (1:53 pm)
Barometer30.09 in30.14 in (6:53 am)30.05 in (3:53 pm)
Wind Speed2.9 mph9.2 mph (2:53 pm)
Wind Gust17.3 mph (3:53 pm)
Weather ElementAverage
Visibility10 mi
Wind DirectionNE (45.7 °)

Weather ElementTotal
Precipitation---
Heating Degree Days16 (Base 65)
Averaged from 23 records on April 21, 2013
WEATHER CONDITIONS BREAKOUT
WIND DIRECTION BREAKOUT
WEATHER BY HOUR - APRIL 21, 2013
[ °C ]   °F
Local TimeTemperatureDewpointHumidityBarometerVisibilityWind DirectionWind SpeedGust SpeedPrecipitationEventsConditions
1:53 AM35.1 °F27.0 °F72 %30.12 in10.0 miCalmClear
2:53 AM34.0 °F26.1 °F73 %30.09 in10.0 miSouth (190°)3.5 mphClear
3:53 AM32.0 °F26.1 °F79 %30.09 in10.0 miCalmClear
4:53 AM30.9 °F25.0 °F79 %30.10 in10.0 miCalmClear
5:53 AM30.0 °F24.1 °F79 %30.11 in10.0 miCalmClear
6:53 AM30.0 °F24.1 °F79 %30.14 in10.0 miCalmClear
7:53 AM36.0 °F26.1 °F67 %30.14 in10.0 miSouth (170°)3.5 mphClear
8:53 AM48.0 °F27.0 °F44 %30.12 in10.0 miCalmClear
9:53 AM55.0 °F26.1 °F33 %30.11 in10.0 miVariable3.5 mphClear
10:53 AM57.9 °F30.9 °F36 %30.12 in10.0 miVariable3.5 mphClear
11:53 AM61.0 °F30.9 °F32 %30.11 in10.0 miVariable3.5 mphClear
12:53 PM64.9 °F25.0 °F22 %30.08 in10.0 miNNE (20°)8.1 mphClear
1:53 PM66.0 °F24.1 °F20 %30.06 in10.0 miNNE (20°)5.8 mphClear
2:53 PM66.9 °F26.1 °F21 %30.06 in10.0 miNNE (30°)9.2 mphClear
3:53 PM66.9 °F25.0 °F21 %30.05 in10.0 miVariable6.9 mph17.3 mphClear
4:53 PM68.0 °F34.0 °F28 %30.05 in10.0 miCalmClear
5:53 PM64.9 °F34.0 °F32 %30.06 in10.0 miVariable5.8 mphClear
6:53 PM61.0 °F35.1 °F38 %30.07 in10.0 miSW (220°)3.5 mphClear
7:53 PM55.9 °F37.0 °F49 %30.09 in10.0 miSSW (210°)4.6 mphClear
8:53 PM50.0 °F36.0 °F59 %30.10 in10.0 miCalmClear
9:53 PM46.9 °F35.1 °F63 %30.10 in10.0 miCalmClear
10:53 PM44.1 °F35.1 °F71 %30.10 in10.0 miCalmClear
11:53 PM42.1 °F34.0 °F73 %30.09 in10.0 miSouth (190°)4.6 mphClear
Hourly data recorded from KTVL, located miles away from South Lake Tahoe - Airport, California







STORIES FROM OUR PARTNERS